Regional Weather Roundup
Issued by NWS

Home | Current Version | Previous Version | Graphics & Text | Print | Product List | Glossary On
Versions: 1 2 3 4 5 6 7 8 9 10 11 12 13 14 15 16 17 18 19 20 21 22 23 24 25 26 27 28 29 30 31 32 33 34 35 36 37 38 39 40 41 42 43 44 45 46 47 48 49 50
324
ASUS44 KLIX 021105
RWRLA
LOUISIANA WEATHER ROUNDUP
NATIONAL WEATHER SERVICE NEW ORLEANS LA
600 AM CDT TUE SEP 02 2014

NOTE: "FAIR" INDICATES FEW OR NO CLOUDS BELOW 12,000 FEET WITH NO
      SIGNIFICANT WEATHER AND/OR OBSTRUCTIONS TO VISIBILITY.
      SKY/WX - SKY CONDITION AND SIGNIFICANT WEATHER.
      TMP - AIR TEMPERATURE.    DP   - DEWPOINT TEMPERATURE.
      RH  - RELATIVE HUMIDITY.  PRES - PRESSURE.
      HX  - HEAT INDEX.         WCI  - WIND CHILL INDEX.

*  THESE STATIONS ARE NOT NWS OR FAA STATIONS AND ARE NOT UNDER
   NWS QUALITY CONTROL.

LAZ040-048-061>063-065-066-069-021200-
SOUTHEAST LOUISIANA

CITY           SKY/WX    TMP DP  RH WIND       PRES   REMARKS
N.O. AUDUBON     N/A     81  78  91 MISG        N/A
N.O. INTL ARPT MOCLDY    79  75  87 CALM      30.03R
N.O. LAKEFRONT MOCLDY    78  76  93 CALM      30.04R
N.O. DOWNTOWN* FAIR      81  73  78 CALM      30.04R
SLIDELL        MOCLDY    77  74  90 CALM      30.03R
BATON ROUGE    CLEAR     75  74  96 E5        30.03R
BOOTHVILLE     PTCLDY    82  78  88 SE5       30.04R
BELLE CHASSE   MOCLDY    78  74  87 NE3       30.02S
BOGALUSA*        N/A     75  72  89 CALM      30.05S
GALLIANO*      NOT AVBL
NEW ROADS*     FAIR      76  75  98 SE3       30.02R
GONZALES*        N/A     75  75 100 CALM      30.02R
HAMMOND*       NOT AVBL
HOUMA*         PTCLDY    76  73  91 CALM      30.02S FOG
PORT FOURCHON* MOSUNNY   84  75  74 S6        30.04S

$$

LAZ041-044-053-054-021200-
SOUTHWEST LOUISIANA

CITY           SKY/WX    TMP DP  RH WIND       PRES   REMARKS
LAKE CHARLES   CLEAR     78  77  96 SE5       29.98R
LAFAYETTE      PTCLDY    76  75  97 NE3       30.01R
PATTERSON        N/A     75  75 100 CALM      30.04R
SALT POINT       N/A     85  78  80 CALM      30.00S HX  96
NEW IBERIA     CLEAR     77  75  93 E6        30.02R
CHENAULT AIRPK NOT AVBL

$$

LAZ027-028-021200-
CENTRAL LOUISIANA

CITY           SKY/WX    TMP DP  RH WIND       PRES   REMARKS
FORT POLK      CLOUDY    76  76 100 SE6       29.99R
ALEXANDRIA INT CLOUDY    76  76 100 SE8       29.99R
ALEXANDRIA     FOG       76  73  91 SE3       30.01R VSB 1

$$

LAZ001-002-021200-
NORTHWEST LOUISIANA

CITY           SKY/WX    TMP DP  RH WIND       PRES   REMARKS
SHREVEPORT     CLOUDY    78  76  93 S5        29.96R
BARKSDALE AFB  MOCLDY    76  75  98 SE7       29.97R
DTN SHREVEPORT CLOUDY    78  75  90 S6        29.97R

$$

LAZ014-016-021200-
NORTHEAST LOUISIANA

CITY           SKY/WX    TMP DP  RH WIND       PRES   REMARKS
MONROE         CLOUDY    77  75  93 S5        30.00R
TALLULAH       MOCLDY    76  74  93 S6        30.00F

$$




USA.gov is the U.S. government's official web portal to all federal, state and local government web resources and services.